Flag for Australia Weather past 2 weeks in Wodonga, Victoria, Australia

Now
69 °F

Mild.


Feels Like: 69 °F
Forecast: 61 / 85 °F
Wind: No wind

Location: Albury Aeroport Aws

Current Time: Mar 3, 2015 at 3:10:06 AM

Latest Report: Mar 3, 2015 at 1:00 AM


Visibility: N/A

Pressure: 29.90 "Hg

Humidity: 49%

Dew point: 49 °F

Location of WodongaLocation

Historic Weather in Wodonga — Graph

°F

Wodonga temperature yesterday

Maximum temperature yesterday: 83 °F (at 3:00 PM)
Minimum temperature yesterday: 55 °F (at 7:00 AM)
Average temperature yesterday: 69 °F

Past Weeks' High & Low Weather Summary

 TemperatureHumidityPressure
High96 °F (Feb 23, 4:00 PM)98% (Feb 19, 4:00 AM)30.08 "Hg (Feb 19, 4:00 AM)
Low55 °F (Mar 2, 7:00 AM)14% (Feb 28, 4:00 PM)29.59 "Hg (Mar 1, 12:00 AM)
Average76 °F56%29.89 "Hg
* Reported Feb 16 1:00 AM — Mar 3 1:00 AM, Wodonga, Weather by CustomWeather, © 2015

Note: Actual official high and low records may vary slightly from our data, if they occured in-between our weather recording intervals... More about our weather records

Advertising

Wodonga weather history for previous 24 hours

 ConditionsComfort  
Time TempWeatherWind HumidityBarometerVisibility
1:00 AM
Tue, Mar 3
69 °FMild.No wind49%29.90 "HgN/A
12:00 AM68 °FOvercast.No wind51%29.91 "HgN/A
10:00 PM
Mon, Mar 2
71 °FMild.5 mph46%29.92 "HgN/A
9:00 PM74 °FOvercast.5 mph39%29.90 "HgN/A
7:00 PM78 °FPleasantly warm.7 mph33%29.89 "HgN/A
6:00 PM82 °FOvercast.9 mph27%29.88 "HgN/A
4:00 PM82 °FPleasantly warm.6 mph25%29.91 "HgN/A
3:00 PM83 °FOvercast.7 mph27%29.93 "HgN/A
1:00 PM77 °FPleasantly warm.7 mph31%29.99 "HgN/A
12:00 PM74 °FMild.6 mph32%30.02 "HgN/A
10:00 AM67 °FMild.10 mph47%30.04 "HgN/A
9:00 AM62 °FRefreshingly cool.9 mph54%30.04 "HgN/A
7:00 AM55 °FCool.5 mph65%30.02 "HgN/A
6:00 AM57 °FCool.6 mph62%30.01 "HgN/A
4:00 AM60 °FRefreshingly cool.7 mph58%29.99 "HgN/A
3:00 AM61 °FRefreshingly cool.7 mph55%29.99 "HgN/A
Weather by CustomWeather, © 2015

See weather overviewHow to use our weather pages